Date String (YYYY-MM-DD hh:mm:ss) UTC,Instrument flags,Ambient pressure (hPa),Sample flow (lpm),Bypass flow (lpm),Sample temperature (°C),Ambient temperature (°C),ASC tube jacket temperature (°C),LED temperature (°C),Box temperature (°C),Sample RH (%),Span deviation,Mass concentration (μg/m³),Mass concentration (μg/m³),Mass concentration (μg/m³)
DateTimeUTC,F1_M11,P_M11,Q1_M11,Q2_M11,T1_M11,T2_M11,T3_M11,T4_M11,T5_M11,U1_M11,ZSPAN_M11,X0_M11,X2_M11,X1_M11
2023-01-04 08:00:00,,0817.6,5.01,0.00,22.4,21.1,00.0,31.4,24.1,11.3,-001.9,0021.09,0019.14,0018.95
2023-01-04 08:01:00,,0817.7,4.99,0.00,22.5,22.0,00.0,31.3,24.4,11.2,-001.8,0020.97,0019.14,0018.96
2023-01-04 08:02:00,,0817.7,5.00,0.00,22.7,22.9,00.0,31.3,24.6,11.1,-001.9,0020.93,0019.15,0018.97
2023-01-04 08:03:00,,0817.5,5.00,0.00,22.7,22.8,00.0,31.4,24.7,11.1,-002.1,0020.92,0019.15,0018.95
2023-01-04 08:04:00,,0817.5,5.00,0.00,22.7,22.3,00.0,31.4,24.6,11.2,-002.0,0020.87,0019.12,0018.91
2023-01-04 08:05:00,,0817.5,5.00,0.00,22.7,21.8,00.0,31.5,24.4,11.2,-001.9,0020.74,0019.01,0018.81
2023-01-04 08:06:00,,0817.5,5.01,0.00,22.7,21.5,00.0,31.5,24.3,11.1,-001.6,0020.51,0018.90,0018.72
2023-01-04 08:07:00,,0817.5,5.01,0.00,22.6,21.3,00.0,31.5,24.3,11.2,-001.5,0020.29,0018.79,0018.60
2023-01-04 08:08:00,,0817.5,5.01,0.00,22.6,21.1,00.0,31.5,24.2,11.2,-001.1,0020.12,0018.66,0018.48
2023-01-04 08:09:00,,0817.4,4.99,0.00,22.5,21.0,00.0,31.4,24.2,11.3,-000.6,0020.03,0018.55,0018.37
2023-01-04 08:10:00,,0817.5,5.00,0.00,22.5,20.9,00.0,31.4,24.1,11.4,-001.1,0019.98,0018.45,0018.29
2023-01-04 08:11:00,,0817.6,4.99,0.00,22.4,20.7,00.0,31.4,24.0,11.5,-001.7,0019.82,0018.33,0018.18
2023-01-04 08:12:00,,0817.6,5.01,0.00,22.5,21.4,00.0,31.4,24.2,11.5,-001.9,0019.66,0018.19,0018.05
2023-01-04 08:13:00,,0817.4,5.00,0.00,22.6,22.4,00.0,31.3,24.4,11.4,-001.9,0019.47,0018.03,0017.91
2023-01-04 08:14:00,,0817.4,5.01,0.00,22.7,23.0,00.0,31.4,24.6,11.4,-002.2,0019.18,0017.73,0017.62
2023-01-04 08:15:00,,0817.5,4.99,0.00,22.7,22.7,00.0,31.4,24.6,11.3,-002.1,0018.99,0017.52,0017.41
2023-01-04 08:16:00,,0817.5,4.99,0.00,22.7,22.2,00.0,31.4,24.5,11.3,-001.7,0018.88,0017.41,0017.30
2023-01-04 08:17:00,,0817.5,5.00,0.00,22.7,21.8,00.0,31.5,24.4,11.3,-001.5,0018.74,0017.26,0017.16
2023-01-04 08:18:00,,0817.5,5.00,0.00,22.6,21.5,00.0,31.5,24.3,11.3,-001.3,0018.67,0017.21,0017.12
2023-01-04 08:19:00,,0817.6,5.01,0.00,22.6,21.2,00.0,31.5,24.2,11.4,-001.4,0018.66,0017.18,0017.10
2023-01-04 08:20:00,,0817.5,5.01,0.00,22.6,21.0,00.0,31.4,24.1,11.3,-001.8,0018.74,0017.21,0017.10
2023-01-04 08:21:00,,0817.5,5.00,0.00,22.5,20.7,00.0,31.4,24.0,11.4,-001.6,0018.73,0017.16,0017.05
2023-01-04 08:22:00,,0817.5,5.00,0.00,22.4,20.5,00.0,31.4,23.9,11.5,-001.1,0018.71,0017.14,0017.03
2023-01-04 08:23:00,,0817.4,5.01,0.00,22.4,21.0,00.0,31.4,24.0,11.5,-000.9,0018.80,0017.18,0017.08
2023-01-04 08:24:00,,0817.4,5.01,0.00,22.5,22.1,00.0,31.3,24.3,11.5,-000.3,0019.16,0017.13,0017.02
2023-01-04 08:25:00,,0817.5,5.00,0.00,22.6,23.0,00.0,31.3,24.6,11.4,0000.6,0019.33,0017.28,0017.15
2023-01-04 08:26:00,,0817.6,4.99,0.00,22.7,22.9,00.0,31.4,24.6,11.4,0000.5,0019.33,0017.27,0017.14
2023-01-04 08:27:00,,0817.7,4.99,0.00,22.7,22.3,00.0,31.4,24.5,11.3,-000.4,0019.43,0017.36,0017.23
2023-01-04 08:28:00,,0817.6,5.00,0.00,22.7,21.8,00.0,31.4,24.4,11.3,-001.0,0019.71,0017.62,0017.48
2023-01-04 08:29:00,,0817.5,4.99,0.00,22.6,21.3,00.0,31.4,24.3,11.3,-000.9,0020.00,0017.82,0017.66
2023-01-04 08:30:00,,0817.4,5.00,0.00,22.6,21.0,00.0,31.4,24.2,11.3,-000.9,0020.20,0017.91,0017.74
2023-01-04 08:31:00,,0817.5,5.00,0.00,22.5,20.8,00.0,31.4,24.1,11.4,-001.0,0020.35,0018.01,0017.84
2023-01-04 08:32:00,,0817.5,5.00,0.00,22.5,20.7,00.0,31.4,24.0,11.4,-000.7,0020.58,0018.21,0018.02
2023-01-04 08:33:00,,0817.5,5.00,0.00,22.4,20.6,00.0,31.4,23.9,11.3,-000.4,0020.84,0018.43,0018.23
2023-01-04 08:34:00,,0817.4,4.99,0.00,22.4,20.4,00.0,31.4,23.9,11.2,-000.4,0020.97,0018.59,0018.39
2023-01-04 08:35:00,,0817.3,5.00,0.00,22.3,20.6,00.0,31.3,23.9,11.3,-000.2,0020.68,0018.62,0018.42
2023-01-04 08:36:00,,0817.4,5.01,0.00,22.4,21.6,00.0,31.3,24.1,11.3,-000.2,0020.11,0018.09,0017.93
2023-01-04 08:37:00,,0817.5,4.99,0.00,22.5,22.6,00.0,31.3,24.4,11.4,-000.2,0019.76,0017.68,0017.50
2023-01-04 08:38:00,,0817.6,4.99,0.00,22.6,22.8,00.0,31.3,24.6,11.4,-000.3,0019.99,0017.48,0017.28
2023-01-04 08:39:00,,0817.6,4.99,0.00,22.6,22.4,00.0,31.4,24.5,11.3,-000.7,0020.37,0017.39,0017.16
2023-01-04 08:40:00,,0817.5,5.00,0.00,22.6,21.9,00.0,31.4,24.3,11.3,-001.3,0020.22,0017.27,0017.05
2023-01-04 08:41:00,,0817.4,5.00,0.00,22.5,21.4,00.0,31.4,24.1,11.3,-001.4,0020.06,0017.17,0016.97
2023-01-04 08:42:00,,0817.4,5.01,0.00,22.5,21.0,00.0,31.4,24.0,11.4,-001.3,0019.99,0017.13,0016.93
2023-01-04 08:43:00,,0817.4,5.00,0.00,22.4,20.8,00.0,31.4,23.9,11.5,-001.4,0020.04,0017.18,0016.99
2023-01-04 08:44:00,,0817.4,5.01,0.00,22.4,20.6,00.0,31.3,23.9,11.5,-001.7,0019.76,0016.92,0016.76
2023-01-04 08:45:00,,0817.5,4.99,0.00,22.3,20.5,00.0,31.3,23.9,11.6,-001.8,0019.18,0016.32,0016.15
2023-01-04 08:46:00,,0817.4,4.99,0.00,22.2,20.4,00.0,31.3,23.8,11.7,-002.1,0019.25,0016.40,0016.19
2023-01-04 08:47:00,,0817.4,5.01,0.00,22.2,20.8,00.0,31.2,23.9,11.8,-002.1,0019.95,0017.05,0016.84
2023-01-04 08:48:00,,0817.5,5.00,0.00,22.3,21.8,00.0,31.2,24.2,11.7,-002.1,0020.53,0017.70,0017.51
2023-01-04 08:49:00,,0817.6,5.00,0.00,22.5,22.7,00.0,31.2,24.4,11.7,-002.2,0020.46,0017.98,0017.79
2023-01-04 08:50:00,,0817.6,4.99,0.00,22.6,22.6,00.0,31.3,24.4,11.6,-001.9,0020.23,0018.09,0017.90
2023-01-04 08:51:00,,0817.6,5.00,0.00,22.5,22.0,00.0,31.3,24.3,11.3,-001.6,0020.84,0018.27,0018.08
2023-01-04 08:52:00,,0817.5,4.99,0.00,22.5,21.5,00.0,31.3,24.1,11.3,-001.5,0021.33,0018.51,0018.31
2023-01-04 08:53:00,,0817.6,5.00,0.00,22.4,21.1,00.0,31.3,24.0,11.4,-001.5,0021.29,0018.49,0018.30
2023-01-04 08:54:00,,0817.6,5.00,0.00,22.4,20.8,00.0,31.3,23.9,11.4,-001.7,0021.01,0018.26,0018.08
2023-01-04 08:55:00,,0817.6,5.01,0.00,22.3,20.7,00.0,31.3,23.9,11.4,-001.7,0020.94,0018.20,0018.00
2023-01-04 08:56:00,,0817.5,5.01,0.00,22.3,20.5,00.0,31.3,23.8,11.5,-001.3,0021.16,0018.37,0018.17
2023-01-04 08:57:00,,0817.6,5.01,0.00,22.2,20.4,00.0,31.2,23.8,11.6,-001.0,0020.74,0018.00,0017.82
2023-01-04 08:58:00,,0817.6,5.00,0.00,22.3,21.3,00.0,31.2,24.0,11.5,-001.2,0020.36,0017.65,0017.47
2023-01-04 08:59:00,,0817.6,5.01,0.00,22.4,22.4,00.0,31.1,24.3,11.5,-001.4,0019.80,0017.10,0016.92
